Temperature
14 14 13 13 13 13 13 14 13 13 13 13 14 14 14 14 14 14 15 15 15 15 15 15 15 15 15 15 15 15 15 15 15 15 15 15 15 15
13 13 13 13 13 13 13 14 14 14 13 13 13 13 14 14 13 14 14 15 15 15 15 15 15 15 14 14 14 14 14 14 14 14 14 14 14 14
13 13 13 13 13 13 13 13 14 14 14 13 13 13 13 13 13 13 14 14 15 15 15 15 14 13 13 13 13 13 13 13 13 13 13 14 14 14
13 13 12 13 13 13 13 13 14 14 14 13 13 13 13 12 12 13 14 14 14 13 13 13 13 13 13 12 12 13 13 13 13 13 13 13 13 13
12 12 12 13 12 13 13 13 13 13 13 14 13 13 13 12 12 13 13 13 13 13 13 13 13 12 12 12 13 13 13 13 13 13 13 13 13 13
12 12 12 13 13 13 13 13 13 13 13 13 13 12 12 12 12 12 12 12 12 12 12 12 12 12 12 12 12 13 13 13 13 13 13 13 12 13
12 12 12 12 12 12 13 13 13 13 13 13 12 12 12 12 12 12 12 12 12 12 12 12 12 12 12 12 12 12 12 12 12 13 13 13 12 12
11 12 12 12 12 13 13 13 13 13 13 13 12 12 12 12 12 11 11 11 11 11 11 11 12 11 11 11 11 11 11 11 11 12 12 12 12 12
11 12 12 12 12 12 12 12 12 12 12 12 12 12 11 11 11 11 11 11 10 11 11 11 11 11 11 11 11 11 11 11 11 11 12 12 12 11
12 12 12 11 11 12 12 12 12 11 11 11 11 11 11 11 11 11 11 10 10 10 11 10 11 10 10 10 9 10 10 10 10 10 11 11 11 11
11 11 11 11 11 11 12 12 11 11 11 11 11 10 10 10 10 10 10 10 9 10 10 10 10 10 9 9 9 9 9 10 10 10 10 10 10 10
11 11 11 11 11 11 11 11 11 11 10 10 10 10 10 10 10 9 9 9 9 9 9 9 9 9 9 9 9 9 9 9 9 9 9 9 9 9
11 11 10 10 10 10 10 10 10 10 10 10 9 9 9 8 8 8 9 9 9 8 8 8 8 8 8 8 8 8 8 8 8 8 8 8 8 8
11 11 10 10 10 10 9 9 9 9 9 9 8 8 8 8 8 8 8 8 8 8 8 8 8 8 8 8 7 8 8 7 7 7 7 7 7 6
11 11 10 10 10 9 9 8 8 8 8 8 7 7 7 7 7 7 7 7 7 7 7 7 7 7 7 7 7 7 7 6 6 6 7 7 6 6
11 10 10 9 9 8 8 8 8 8 7 7 7 7 7 7 7 7 7 7 7 6 7 7 6 6 7 7 7 6 6 6 6 6 6 6 6 5
10 10 9 9 9 8 8 8 8 8 7 7 7 7 7 7 6 6 6 6 6 6 6 6 6 6 6 6 6 6 6 5 5 5 5 5 5 5
10 10 10 9 9 9 8 8 8 8 7 7 7 7 7 6 6 6 6 6 6 6 6 6 6 6 6 6 6 6 5 5 5 5 4 4 4 4
10 10 10 9 9 9 9 9 8 8 8 7 7 7 7 7 7 6 6 6 6 6 5 6 6 6 6 6 6 5 5 5 5 4 4 4 3 3
10 10 10 9 9 9 9 9 8 8 8 8 8 7 7 7 7 6 6 6 6 5 5 5 5 5 5 6 6 5 5 5 4 4 4 3 3 3
10 10 10 9 9 9 9 9 9 9 8 8 8 8 7 7 7 6 6 6 5 5 5 5 5 5 5 6 6 5 5 5 4 4 4 3 2 2
10 10 10 9 9 9 9 9 9 9 8 8 8 8 8 7 7 6 6 6 5 5 5 5 5 5 5 5 5 5 5 4 4 4 3 3 2 1
11 10 10 10 9 9 10 9 9 9 9 9 8 8 8 8 7 7 6 6 5 5 5 5 5 5 5 5 4 4 4 4 4 3 3 3 2 2
Wind_Speed
8 7 6 6 7 9 9 9 7 4 3 3 2 4 4 5 10 11 9 11 12 10 7 4 4 6 8 9 8 7 6 6 6 5 4 4 5 9
5 5 6 8 11 11 11 9 6 5 3 2 2 3 4 7 11 11 9 12 14 11 9 9 9 9 10 9 8 7 7 7 6 6 6 5 6 7
4 2 2 2 2 4 6 6 4 4 6 3 3 2 4 7 8 9 10 9 11 14 14 14 13 12 11 10 10 9 8 7 7 6 6 6 8 9
8 7 6 7 6 6 5 5 4 6 7 6 2 3 6 5 7 7 7 8 9 14 14 14 14 14 13 11 11 10 9 7 6 6 6 7 7 9
7 6 4 5 4 5 3 6 7 7 6 9 5 4 5 4 5 6 6 5 6 10 11 11 12 11 9 9 9 9 9 8 6 5 5 5 5 7
5 3 2 4 3 3 5 9 10 10 9 10 8 5 5 5 4 3 4 4 5 5 6 7 8 9 9 8 8 9 9 11 11 12 10 7 7 9
4 4 4 6 5 5 7 10 11 10 8 9 8 5 4 4 3 2 2 2 3 4 3 4 4 5 7 8 9 10 10 11 13 15 15 14 14 15
2 6 8 10 13 15 17 15 10 10 8 6 5 6 3 3 3 2 2 2 1 4 3 4 5 5 6 8 11 12 12 12 13 13 12 13 16 19
6 6 6 5 9 11 13 15 14 11 8 7 7 5 3 2 3 2 2 2 2 4 3 3 4 5 6 10 15 16 16 16 15 15 15 16 17 19
6 5 6 5 5 9 10 10 10 9 7 6 7 5 3 3 2 3 2 2 2 3 4 3 4 3 4 7 15 17 16 16 16 16 16 19 21 20
5 4 5 5 5 9 12 11 10 10 11 13 13 11 11 8 3 2 2 2 2 3 5 3 3 3 2 3 8 15 18 18 17 17 18 18 19 16
4 4 5 7 8 8 12 12 11 6 7 8 9 10 11 11 11 6 3 3 2 2 5 4 4 3 2 2 5 9 12 16 16 16 16 18 19 13
6 5 4 9 11 12 11 9 9 7 8 10 9 8 8 9 9 8 7 5 4 3 4 3 2 2 2 3 4 5 6 8 9 11 12 15 17 15
8 6 5 10 13 13 11 12 12 9 7 8 7 6 7 7 6 7 8 9 8 5 5 4 2 3 3 3 4 6 6 8 9 8 10 11 11 14
8 10 10 12 12 10 10 11 9 7 7 7 6 4 3 3 3 4 5 6 6 8 9 7 4 3 4 3 3 6 6 6 10 9 9 8 8 8
10 10 10 9 8 6 6 6 6 6 6 6 5 4 3 4 4 3 3 4 5 5 7 8 6 4 3 3 5 7 7 6 8 8 7 7 8 9
12 7 6 5 5 5 4 5 6 6 6 4 6 5 5 5 4 2 3 3 4 4 5 6 6 4 4 4 4 6 6 6 7 7 7 8 9 10
10 8 7 7 7 7 6 5 4 5 5 6 6 6 6 5 4 2 2 3 3 3 4 5 6 3 2 3 6 6 5 5 6 8 8 8 10 11
9 10 10 9 8 8 7 6 5 5 5 6 6 6 5 4 3 3 2 2 2 2 3 4 5 5 4 4 3 5 4 4 7 9 10 9 10 12
11 12 11 10 9 9 8 7 7 7 5 6 6 5 4 3 2 2 2 2 2 2 2 3 4 4 4 4 3 2 4 4 6 8 10 9 11 11
12 11 11 11 10 9 9 9 9 9 8 6 6 6 5 4 3 2 2 3 2 1 2 3 4 4 3 3 3 2 2 3 4 4 7 10 13 13
12 11 11 11 10 9 10 10 9 9 9 7 6 6 5 4 4 4 3 3 2 1 1 2 3 3 2 3 3 4 4 4 4 2 3 6 8 10
12 11 11 11 10 9 10 11 11 10 10 9 8 7 7 6 5 5 4 4 4 3 1 1 1 2 3 3 3 4 5 5 5 6 5 6 8 8
Wind_Direction
247 244 246 233 218 226 221 215 204 174 174 184 156 89 88 81 83 82 76 64 57 51 42 60 83 90 89 81 70 59 45 29 24 5 340 313 293 277
272 273 269 253 237 226 215 196 181 151 137 137 87 89 77 82 83 74 72 57 44 46 56 86 87 89 84 76 66 51 40 26 13 356 350 332 311 289
329 306 28 350 227 188 157 139 130 115 120 85 42 67 82 98 97 79 69 65 54 54 65 78 87 91 89 79 70 61 52 40 21 5 344 330 310 296
35 47 55 46 32 57 90 102 116 112 128 127 100 79 82 92 96 88 77 64 55 54 60 71 81 89 93 86 76 64 53 42 27 10 353 341 326 317
41 46 42 73 29 40 79 105 109 98 101 111 100 72 83 90 95 81 63 54 56 56 55 58 67 75 81 75 59 50 42 31 16 351 328 319 323 325
33 46 57 80 90 132 144 123 115 108 108 107 102 90 82 73 86 93 93 68 53 47 52 42 46 51 51 49 38 27 16 6 360 355 346 324 309 303
11 52 83 92 95 117 125 117 114 111 110 106 103 97 84 78 81 80 96 92 68 25 41 35 27 42 34 36 28 18 10 2 356 353 352 340 327 316
97 68 79 83 76 71 73 76 87 112 110 104 102 100 92 86 87 81 85 100 71 13 14 36 25 35 27 37 38 33 23 15 6 357 345 333 324 321
127 108 89 70 85 85 74 68 64 72 101 120 118 121 130 137 126 120 105 80 73 2 359 38 26 35 23 29 30 29 25 18 12 13 10 354 332 319
71 99 117 104 81 101 92 75 65 65 75 95 104 113 115 135 122 104 103 109 90 31 19 26 15 14 2 22 27 29 28 23 13 2 8 5 353 340
69 79 105 110 83 103 103 94 84 73 71 73 73 72 70 63 70 121 105 113 77 27 24 16 4 340 323 345 8 16 16 11 9 6 5 4 357 353
90 77 90 105 98 108 117 115 104 85 90 82 65 53 52 51 48 54 78 94 81 40 19 360 357 347 331 348 350 0 2 358 358 358 2 3 3 1
126 115 105 102 100 97 99 106 114 112 95 89 80 71 62 57 52 53 61 78 82 66 360 337 358 350 336 336 334 346 359 360 357 356 355 356 3 12
143 131 114 99 97 98 100 104 104 99 95 92 88 76 71 69 64 67 68 71 69 63 11 9 41 16 14 25 5 349 352 6 4 360 2 0 9 12
140 130 119 102 94 86 90 100 104 101 97 96 96 89 76 65 72 70 62 65 71 53 39 31 41 54 51 39 14 17 4 5 14 12 13 17 21 7
130 121 108 93 92 99 91 86 91 101 108 108 112 108 87 75 73 69 63 48 46 23 35 39 37 38 56 50 34 36 33 21 9 14 21 19 20 13
137 131 127 123 128 125 113 109 107 110 111 118 121 109 97 96 83 69 77 70 67 23 6 13 23 47 53 28 25 31 27 27 16 4 5 14 11 3
141 152 155 159 163 158 148 136 126 125 127 132 131 125 118 117 106 80 82 95 92 48 8 3 0 15 38 63 43 18 21 14 2 2 5 359 3 359
158 167 172 174 176 171 166 160 155 147 146 148 142 138 133 125 119 116 125 132 115 74 18 6 12 12 2 355 28 40 8 1 355 359 360 357 348 350
176 176 180 181 181 179 177 171 161 158 160 159 150 148 150 145 142 141 147 142 124 88 27 11 10 358 333 329 325 358 25 3 354 350 353 353 346 337
184 182 182 184 187 188 186 179 173 172 172 170 165 164 169 166 158 157 142 126 122 86 23 10 352 327 292 280 281 297 1 29 13 345 349 351 350 355
184 185 184 184 186 189 185 180 177 178 179 183 179 178 180 183 172 166 168 162 156 140 358 338 350 6 11 350 340 332 334 345 354 358 32 33 6 356
181 186 189 187 187 187 183 183 186 188 190 193 191 188 185 186 182 173 177 181 174 175 211 291 18 25 17 359 338 332 338 346 349 340 333 350 352 348
Height
1438 1437 1437 1436 1438 1440 1443 1446 1451 1453 1455 1457 1460 1462 1464 1466 1468 1466 1467 1467 1466 1466 1467 1467 1468 1469 1469 1470 1472 1473 1475 1477 1477 1478 1480 1482 1484 1487
1432 1430 1429 1428 1429 1431 1435 1440 1443 1446 1451 1456 1458 1460 1463 1464 1467 1468 1466 1465 1465 1465 1465 1464 1465 1467 1468 1469 1471 1472 1473 1473 1473 1475 1475 1476 1479 1482
1427 1425 1424 1424 1424 1426 1430 1436 1441 1444 1448 1453 1457 1461 1462 1465 1467 1467 1465 1464 1463 1463 1462 1462 1463 1465 1467 1469 1470 1470 1470 1470 1470 1470 1471 1472 1474 1476
1426 1426 1425 1424 1424 1426 1430 1435 1440 1444 1447 1451 1457 1460 1463 1466 1467 1467 1466 1463 1462 1461 1461 1462 1463 1464 1466 1468 1469 1468 1468 1468 1468 1468 1468 1467 1468 1469
1428 1429 1428 1429 1428 1431 1435 1438 1441 1444 1448 1452 1456 1459 1462 1465 1467 1467 1465 1465 1464 1464 1464 1464 1464 1465 1466 1467 1467 1466 1467 1467 1466 1465 1464 1463 1463 1463
1433 1432 1431 1431 1432 1435 1438 1441 1443 1446 1449 1453 1456 1459 1462 1463 1465 1466 1468 1468 1466 1466 1466 1466 1466 1466 1467 1466 1465 1465 1465 1465 1464 1462 1460 1458 1457 1456
1438 1436 1435 1435 1436 1439 1442 1442 1444 1449 1451 1453 1456 1460 1462 1463 1465 1467 1468 1468 1468 1468 1467 1467 1467 1466 1467 1466 1465 1464 1463 1463 1461 1458 1456 1454 1452 1450
1442 1441 1440 1441 1442 1444 1445 1446 1448 1450 1453 1455 1457 1460 1463 1464 1465 1467 1469 1470 1470 1469 1468 1468 1467 1467 1466 1466 1464 1463 1463 1460 1458 1456 1453 1450 1447 1443
1444 1445 1446 1446 1447 1448 1449 1450 1451 1453 1456 1458 1459 1461 1463 1464 1466 1467 1468 1469 1469 1469 1469 1468 1468 1467 1467 1466 1464 1463 1460 1458 1456 1452 1448 1445 1442 1438
1446 1447 1448 1449 1450 1451 1451 1452 1453 1455 1457 1459 1461 1462 1464 1464 1465 1466 1466 1467 1468 1469 1469 1469 1468 1468 1468 1467 1465 1463 1461 1457 1454 1450 1446 1442 1438 1434
1447 1448 1449 1450 1450 1451 1451 1453 1455 1456 1457 1459 1460 1461 1463 1463 1464 1464 1465 1467 1468 1469 1469 1469 1468 1467 1467 1467 1465 1462 1460 1457 1453 1450 1445 1440 1435 1430
1447 1448 1449 1450 1451 1452 1453 1454 1455 1455 1457 1460 1461 1461 1462 1462 1463 1463 1465 1467 1468 1469 1469 1468 1468 1466 1466 1465 1463 1461 1459 1456 1454 1450 1444 1439 1433 1427
1447 1448 1450 1451 1452 1452 1452 1454 1455 1457 1458 1460 1461 1463 1463 1463 1464 1465 1466 1468 1468 1469 1469 1468 1468 1467 1466 1464 1463 1460 1458 1455 1452 1448 1444 1439 1433 1426
1447 1448 1449 1451 1452 1452 1453 1454 1456 1458 1459 1460 1463 1464 1464 1466 1466 1467 1467 1468 1468 1469 1468 1467 1467 1465 1464 1463 1462 1460 1458 1454 1451 1447 1443 1438 1433 1427
1447 1448 1450 1451 1452 1454 1455 1456 1457 1458 1459 1462 1464 1465 1467 1467 1467 1468 1468 1469 1469 1468 1467 1466 1465 1465 1464 1464 1462 1460 1458 1455 1451 1447 1443 1439 1433 1427
1446 1448 1450 1452 1454 1456 1457 1457 1458 1459 1461 1463 1465 1467 1467 1467 1469 1469 1470 1469 1469 1469 1468 1467 1466 1466 1465 1464 1463 1460 1458 1455 1452 1447 1443 1439 1434 1428
1444 1447 1450 1452 1455 1457 1458 1458 1459 1460 1463 1465 1466 1467 1468 1468 1469 1470 1470 1469 1469 1470 1470 1469 1468 1467 1466 1465 1463 1461 1459 1456 1453 1449 1444 1439 1434 1429
1442 1445 1448 1451 1454 1456 1458 1459 1461 1462 1464 1465 1467 1468 1469 1469 1470 1470 1470 1470 1470 1471 1471 1470 1468 1468 1467 1466 1465 1462 1460 1457 1454 1449 1444 1439 1434 1429
1438 1442 1445 1449 1452 1455 1458 1460 1461 1463 1464 1465 1467 1468 1469 1470 1470 1470 1471 1471 1471 1471 1471 1470 1468 1468 1468 1467 1465 1463 1461 1458 1454 1450 1445 1439 1435 1429
1435 1439 1442 1447 1451 1454 1456 1459 1461 1463 1465 1466 1467 1469 1470 1471 1472 1471 1471 1471 1471 1471 1471 1470 1469 1468 1468 1467 1465 1463 1461 1458 1455 1451 1446 1440 1435 1428
1431 1436 1440 1444 1449 1452 1455 1458 1460 1462 1464 1466 1468 1469 1470 1471 1471 1472 1471 1471 1471 1471 1471 1470 1468 1468 1467 1466 1465 1462 1460 1457 1455 1451 1446 1440 1434 1427
1428 1433 1437 1441 1446 1449 1452 1456 1459 1461 1463 1465 1468 1469 1470 1471 1471 1472 1472 1471 1471 1471 1470 1469 1467 1467 1467 1465 1464 1462 1459 1457 1454 1451 1447 1442 1437 1429
1424 1429 1434 1437 1442 1446 1450 1453 1456 1459 1461 1463 1466 1468 1469 1470 1471 1471 1471 1471 1470 1470 1469 1468 1467 1467 1466 1465 1463 1461 1458 1456 1454 1451 1448 1443 1439 1434